User: anonymous   Login
Location: Alexandria
(38.8050°N, 77.0470°W)
Time: 09:44:54
(UTC-05:00)
Language:

Tiangong 1 - Orbit

View from above orbital plane
View from above orbital plane
View from above satellite
View from above satellite

Ground track
Ground track

The orbit data is extracted from the following two-line orbital elements,

1 37820U 11053A   18053.17119253  .00116474  14493-4  15268-3 0  9999
2 37820  42.7505  84.9592 0015964  86.2478 344.1297 16.06032507367750
Epoch (UTC): 22 February 2018 04:06:31
Eccentricity: 0.0015964
inclination: 42.7505°
perigee height: 247 km
apogee height: 268 km
right ascension of ascending node: 84.9592°
argument of perigee: 86.2478°
revolutions per day: 16.06032507
mean anomaly at epoch: 344.1297°
orbit number at epoch: 36775

The dashed part of the orbit path shows where the satellite is in the earth's shadow,  

DLR